Temperature
20 20 19 19 18 18 20 22 23 24 25 26 26 26 24 24 23 23 22 23 22 22 21 20 20 21 21 21 21 21 21 21 21 20 20 20 20 20 20 20 19 19 19 19 19 19 19 19 19
20 19 19 19 19 20 22 23 24 25 26 27 27 26 24 23 23 23 23 22 22 22 21 21 20 20 21 21 21 21 21 21 20 20 20 20 20 20 20 20 19 19 19 19 19 19 19 19 19
20 19 19 18 19 20 23 24 25 26 27 27 26 25 24 23 23 23 23 23 22 22 21 21 20 20 20 20 20 20 20 20 20 20 20 20 20 20 20 20 19 19 19 19 19 19 19 19 19
20 19 19 18 20 21 22 24 25 26 27 27 26 24 23 23 24 24 24 23 22 22 21 21 20 20 20 20 20 20 20 20 20 20 20 20 20 20 20 19 19 19 19 19 19 19 19 19 19
20 20 18 18 19 21 23 25 26 25 25 26 25 23 22 23 24 24 24 23 22 22 21 21 21 20 20 20 20 20 20 20 20 20 20 20 20 20 19 19 19 19 19 19 19 19 19 19 18
20 18 18 19 20 23 24 26 26 25 25 25 25 23 21 22 23 23 23 23 22 22 21 21 21 20 20 20 20 20 20 20 20 20 20 20 20 20 19 19 19 19 19 19 19 19 19 19 18
20 17 19 20 20 22 25 26 25 25 24 24 24 22 20 21 22 23 22 22 22 21 21 21 20 20 20 20 20 20 20 20 20 19 19 19 19 20 20 19 19 19 19 19 19 19 19 19 18
20 17 19 19 21 22 25 26 25 25 24 24 24 22 20 20 21 22 22 21 21 21 21 21 21 20 20 20 20 20 20 19 19 19 19 19 19 19 19 19 19 19 19 19 19 19 19 19 18
21 17 18 19 21 22 24 24 25 25 24 23 23 22 22 21 21 21 21 21 20 20 21 21 21 21 20 20 20 19 19 19 19 19 19 19 19 19 19 19 19 19 19 19 19 19 18 18 18
21 17 19 20 21 22 23 24 24 24 23 22 21 21 21 21 21 21 21 21 21 21 20 20 21 20 20 20 19 19 19 19 19 19 19 19 19 19 18 18 18 18 18 18 18 18 18 18 18
20 19 20 21 23 23 22 23 23 23 21 21 20 20 21 21 20 20 21 21 21 21 21 21 20 20 20 20 19 19 19 19 19 19 18 18 18 18 18 18 18 18 18 18 18 18 18 18 18
20 20 22 23 24 23 23 22 21 20 20 21 21 20 20 20 20 20 20 21 21 21 21 20 20 20 20 19 19 18 18 18 18 18 18 18 18 18 18 18 18 18 17 17 17 17 17 17 17
21 21 23 23 23 22 21 20 20 19 19 20 20 19 19 19 19 20 20 20 20 20 20 20 20 19 19 19 19 18 18 18 18 18 18 18 18 18 17 17 17 17 17 17 17 17 17 17 17
22 22 22 23 22 22 20 19 19 18 19 19 19 19 18 18 19 19 19 19 19 19 19 19 19 19 19 18 18 18 18 18 18 18 18 17 17 17 17 17 17 17 17 17 17 17 17 17 17
23 22 21 21 21 21 20 19 18 18 18 18 18 18 18 18 19 19 19 19 19 19 19 19 19 18 18 18 18 18 18 17 17 17 17 17 17 17 17 17 17 17 17 16 16 16 16 16 16
21 21 21 21 20 20 20 18 18 18 18 17 17 18 18 18 18 18 19 19 19 19 19 18 18 18 18 18 18 17 17 17 17 17 17 17 17 17 16 16 16 16 16 16 16 16 16 16 16
20 20 21 21 20 20 18 18 18 18 18 17 17 17 18 18 18 18 19 19 19 19 18 18 18 18 18 18 17 17 17 17 17 16 16 16 16 16 16 16 16 16 16 16 16 16 15 15 15
21 21 21 20 20 19 18 17 17 17 17 17 17 17 17 18 18 18 19 19 19 18 18 18 18 18 18 17 17 17 17 17 16 16 16 16 16 16 16 16 15 15 15 15 15 15 15 15 15
22 21 20 20 20 18 17 17 17 17 17 16 17 17 18 18 18 18 18 18 18 18 18 18 18 18 18 17 17 17 17 16 16 16 16 16 16 15 15 15 15 15 15 15 15 15 15 14 14
21 21 20 20 20 18 17 17 17 16 16 16 16 17 18 18 18 18 18 18 18 18 18 18 18 18 17 17 17 17 16 16 16 16 15 15 15 15 15 15 15 15 14 14 14 14 14 14 14
21 21 20 19 19 18 18 17 17 16 16 17 17 17 17 18 18 18 18 18 18 18 18 18 18 17 17 17 16 16 16 16 16 15 15 15 15 14 14 14 14 14 14 14 14 14 14 14 14
21 21 21 20 18 16 17 17 17 16 16 16 17 17 18 18 18 18 18 18 18 18 18 18 17 17 17 16 16 16 15 15 15 15 14 14 14 14 14 14 13 13 13 13 13 13 13 13 13
21 20 19 18 17 16 16 17 16 16 16 16 17 17 18 18 18 19 19 19 18 18 18 17 17 17 16 16 15 15 15 14 14 14 14 13 13 13 13 13 13 13 13 13 13 13 13 13 13
20 19 18 16 16 17 16 16 17 16 17 17 17 18 18 19 19 19 18 18 18 18 18 17 17 16 16 15 15 15 14 14 13 13 13 13 13 13 12 12 12 12 12 12 12 12 12 12 12
20 18 18 18 16 17 16 16 16 17 17 17 17 18 19 19 19 19 19 18 18 18 18 17 16 16 15 15 15 14 13 13 13 12 12 12 12 12 12 12 12 12 12 12 12 12 12 12 12
19 19 18 19 18 17 16 16 17 17 18 18 18 18 19 19 19 19 19 18 18 18 17 17 16 15 15 14 14 13 13 12 12 12 12 11 11 11 11 11 11 11 11 11 11 11 12 12 12
19 18 17 16 16 16 16 16 17 18 17 17 18 18 19 19 19 19 19 18 18 17 17 16 15 15 14 13 13 12 12 12 11 11 11 11 11 10 10 10 10 10 11 11 11 11 11 11 11
19 16 15 16 17 18 18 17 17 18 18 18 17 18 19 19 19 18 18 18 17 16 16 15 15 14 13 13 12 12 11 11 11 11 10 10 10 10 10 10 10 10 10 10 10 10 10 10 11
20 18 15 14 15 16 17 17 17 17 18 18 18 19 19 19 19 18 18 17 16 16 15 14 14 13 13 12 12 11 11 11 10 10 10 10 10 9 9 9 9 9 9 9 9 9 10 10 10
21 19 16 17 16 15 16 16 18 17 17 18 19 19 19 19 18 18 17 16 16 15 14 14 13 12 12 11 11 11 10 10 10 10 9 9 9 9 9 9 9 9 9 9 9 9 9 9 9
Wind_Speed
8 6 2 1 3 2 5 5 3 5 4 2 1 2 4 2 1 1 2 10 15 15 16 20 21 21 20 20 20 20 19 19 19 19 18 18 17 17 16 15 14 12 11 10 10 9 9 10 11
6 3 1 2 2 2 5 4 4 5 4 3 2 3 4 3 3 6 6 9 16 14 15 18 21 20 20 19 19 18 18 18 18 18 17 17 16 16 15 14 13 12 11 10 10 9 9 10 10
4 1 2 2 0 3 6 5 5 6 5 1 2 4 4 2 4 6 7 15 15 12 13 18 21 20 19 18 18 17 17 17 17 17 16 16 15 15 14 13 12 12 11 10 10 10 10 9 10
3 2 3 2 4 5 6 10 10 8 4 2 3 4 4 5 2 7 14 17 16 12 13 18 21 19 19 18 17 16 16 16 16 15 15 15 14 13 13 12 11 11 11 10 10 10 9 9 9
3 3 3 3 6 6 6 9 7 6 3 3 3 3 3 5 8 14 15 16 16 12 11 17 20 19 18 17 17 16 15 15 15 15 14 14 14 13 12 12 11 10 10 10 9 10 9 9 9
4 3 3 4 6 7 6 6 6 6 3 2 3 3 3 4 8 11 12 13 13 13 10 14 19 18 17 17 16 15 15 14 14 14 14 13 13 12 12 12 11 11 10 9 9 10 9 9 8
4 3 1 4 6 7 5 5 6 7 5 2 2 4 2 4 7 9 11 11 11 9 7 8 13 15 16 16 16 15 15 14 14 14 14 13 13 13 12 12 12 11 11 10 10 10 10 10 9
4 4 2 4 5 7 5 5 4 5 3 2 3 4 3 6 10 11 11 11 10 8 6 5 8 9 10 12 14 14 14 14 13 13 13 13 13 13 13 12 12 12 12 12 12 12 11 11 10
4 3 3 5 5 7 5 6 6 3 2 3 4 2 6 14 14 13 12 10 8 8 5 5 5 6 7 8 11 12 13 13 12 12 13 12 11 10 10 11 12 13 13 13 13 13 12 12 11
4 3 8 7 6 7 8 6 6 2 3 3 6 8 13 15 13 12 12 11 10 9 7 4 4 4 5 6 6 7 8 9 9 8 9 9 8 8 9 9 12 13 13 14 14 14 13 12 10
7 7 7 8 10 8 7 5 3 1 2 1 6 10 12 13 10 9 8 8 8 7 7 5 4 4 4 2 2 3 4 5 6 7 7 6 6 6 7 6 8 10 11 10 11 13 11 10 10
5 8 8 7 6 4 4 1 4 5 2 3 8 10 11 10 8 7 7 6 5 5 5 4 5 5 5 4 2 2 3 3 4 6 6 6 4 4 4 4 6 7 7 7 8 8 9 11 12
6 7 5 6 5 2 3 4 5 5 6 9 11 10 9 8 7 5 5 5 4 3 2 1 2 2 3 3 2 2 2 3 4 4 5 7 4 4 3 4 5 6 6 6 6 7 7 8 10
5 4 5 5 3 2 7 5 5 5 7 11 12 11 10 8 7 6 5 4 3 3 3 3 2 2 2 2 2 1 2 3 3 3 4 6 5 3 3 3 3 4 5 5 5 5 6 6 7
3 4 6 4 3 1 6 8 5 3 7 10 11 10 10 7 6 6 3 3 3 4 3 4 3 2 2 1 1 1 1 1 1 2 2 2 2 3 3 3 3 3 5 5 4 5 4 5 6
3 3 4 5 4 3 6 3 2 3 7 9 9 9 8 6 5 4 3 3 3 3 4 4 4 5 4 2 1 1 1 1 1 1 1 0 1 2 2 2 2 3 3 3 2 3 3 4 5
4 2 4 5 5 3 5 4 1 3 5 7 7 7 7 5 4 3 3 3 3 3 4 5 4 5 4 3 3 2 2 2 1 1 1 0 1 1 1 1 2 2 2 2 2 2 2 4 5
4 3 2 3 4 5 6 5 3 3 4 4 4 4 4 3 2 2 2 3 3 3 3 4 4 4 3 3 3 2 2 2 2 1 1 1 1 1 1 1 2 1 1 2 2 2 3 3 5
4 3 2 1 1 5 6 5 2 3 3 2 2 1 2 2 1 2 2 2 2 2 3 3 4 3 3 2 2 1 1 0 0 0 0 1 2 2 1 1 2 1 2 2 2 2 3 3 3
3 2 2 1 4 4 5 3 2 2 1 1 2 1 1 2 1 1 2 2 2 2 2 2 3 3 2 1 1 1 1 1 1 1 2 2 2 3 2 2 2 2 2 2 2 2 1 2 2
2 4 4 4 4 5 3 2 2 2 2 1 1 2 2 4 4 3 3 3 3 3 4 3 3 2 1 1 2 2 2 2 2 2 2 3 3 4 3 3 3 3 3 3 3 3 3 3 2
2 2 5 6 5 2 3 0 3 2 4 3 3 2 3 5 4 4 4 4 5 5 4 3 2 2 1 1 1 2 1 1 3 2 3 4 4 4 4 4 3 3 3 4 4 3 3 3 3
3 5 6 5 5 3 5 2 5 2 3 5 5 4 5 5 5 5 5 5 5 4 3 3 2 2 1 1 1 0 1 2 2 2 4 4 4 4 5 4 3 3 3 4 4 4 4 4 3
6 6 7 6 5 3 2 1 5 3 5 5 4 4 5 5 5 4 3 3 3 2 2 2 1 1 1 1 1 1 2 3 4 4 4 4 4 4 5 4 3 4 4 4 4 4 5 4 4
5 6 4 5 5 2 2 1 7 6 6 6 6 6 4 4 4 3 4 3 3 2 2 2 1 1 2 2 2 2 3 3 4 5 4 5 4 4 6 4 4 4 5 5 4 4 5 5 5
3 6 6 3 3 3 2 4 7 6 5 5 5 4 3 3 3 3 4 4 3 2 1 1 1 1 2 2 3 3 3 2 3 5 4 5 5 5 6 6 5 6 5 5 4 4 5 5 6
6 3 5 6 2 1 4 6 8 3 3 3 3 3 3 3 2 2 2 2 2 1 1 1 0 1 3 3 3 4 3 3 4 5 4 5 5 6 6 6 6 6 6 6 5 5 6 5 6
5 8 6 5 4 1 5 4 5 6 6 5 4 4 3 2 2 2 2 1 1 1 1 1 1 1 3 3 3 3 4 4 5 5 6 6 6 6 7 7 7 7 6 6 5 6 6 6 6
3 4 6 5 5 5 3 7 7 9 8 7 7 5 5 4 3 2 1 1 1 1 2 2 2 2 3 4 4 4 5 5 5 5 6 6 6 7 7 7 7 7 7 7 6 7 7 8 8
3 5 7 5 3 4 4 7 6 7 7 6 6 4 4 4 3 2 2 1 1 1 2 3 3 4 4 4 4 5 6 6 6 6 7 7 7 7 7 7 7 8 8 7 7 9 8 8 9
Wind_Direction
146 140 134 68 43 24 281 265 255 292 303 304 9 73 87 90 157 167 103 134 135 145 154 155 152 149 145 142 141 140 140 140 141 142 143 146 149 151 153 154 156 156 154 151 147 142 137 134 132
138 147 77 57 62 346 293 265 272 272 270 296 3 80 69 59 74 111 129 137 140 144 149 154 154 151 148 146 145 144 144 145 146 147 148 150 153 155 157 158 159 160 159 156 155 150 146 141 139
151 170 89 63 93 231 281 284 281 291 287 291 50 55 73 82 126 141 146 139 137 138 143 156 156 154 152 150 150 150 150 150 151 152 154 156 158 160 162 163 164 164 163 163 163 158 154 150 147
129 56 56 50 274 247 251 282 299 310 330 42 91 60 58 35 129 137 137 140 138 136 143 159 157 157 155 155 155 156 156 158 159 160 161 163 165 167 167 168 170 170 170 171 169 166 162 159 157
73 81 42 334 278 266 262 286 303 324 334 30 71 75 34 18 94 123 135 142 142 139 145 159 158 159 160 160 161 162 163 165 167 168 170 172 174 176 176 177 178 178 179 181 180 175 173 172 170
63 66 60 295 284 284 288 307 340 349 339 30 78 81 44 77 106 124 131 136 141 142 141 155 159 162 164 165 167 169 171 174 176 177 179 181 182 185 186 187 187 190 192 191 190 188 185 185 186
109 99 213 266 284 296 307 340 359 344 348 355 89 93 77 111 108 114 118 125 132 130 124 140 157 164 169 172 175 178 181 183 185 187 188 190 192 194 196 197 198 201 203 203 203 201 201 199 199
134 103 303 276 269 278 298 344 345 338 315 27 67 118 164 143 117 109 111 120 128 125 122 125 139 152 164 176 183 186 190 192 194 196 198 200 202 204 208 209 209 210 212 214 215 213 213 212 211
118 77 255 245 244 264 294 333 325 313 51 51 43 79 127 125 119 116 118 125 137 142 132 130 132 139 152 172 192 194 198 201 203 207 209 209 211 213 218 220 221 224 225 225 225 224 224 223 222
122 176 233 227 225 257 293 310 305 328 38 53 61 77 113 123 127 130 139 148 159 164 164 155 150 145 152 180 196 201 206 207 207 212 219 216 212 219 229 234 235 238 238 237 235 233 231 231 230
175 209 244 255 249 256 282 303 336 70 23 174 137 130 128 125 129 135 143 155 165 167 169 170 163 147 150 167 199 206 210 208 210 216 227 226 218 224 236 242 251 254 254 249 245 242 234 230 227
204 246 245 274 280 267 257 271 51 56 51 84 121 127 125 126 129 138 146 154 152 156 165 169 162 162 169 180 199 216 222 218 217 216 224 225 223 225 231 237 243 249 253 251 244 241 237 235 233
225 260 267 269 293 291 86 84 95 65 75 86 99 97 100 96 91 84 96 104 110 121 123 127 135 164 172 169 191 203 217 229 229 222 221 220 218 225 231 241 244 250 252 251 251 244 241 238 239
242 253 289 297 303 56 91 70 76 67 83 87 90 87 84 86 83 72 67 85 105 113 103 88 93 131 138 158 172 180 200 213 215 219 231 230 224 224 224 238 242 247 251 250 248 246 245 243 241
296 300 323 346 1 87 93 50 49 85 94 86 85 86 82 76 80 86 91 103 114 117 124 126 137 118 116 142 160 142 180 191 218 234 237 231 217 215 222 235 247 255 265 267 260 255 251 251 248
356 4 334 327 9 34 91 100 53 50 95 88 88 88 84 70 72 87 102 102 104 110 111 112 124 114 121 135 108 91 111 125 170 167 100 105 174 206 218 240 259 263 269 264 260 256 258 258 254
17 332 295 317 7 45 89 125 85 29 86 96 95 96 102 100 95 106 121 120 115 108 107 100 105 113 119 118 109 97 89 90 92 90 79 340 298 253 231 248 262 268 266 261 266 256 247 263 262
259 268 282 314 348 60 89 107 87 36 80 91 89 90 93 97 114 124 115 119 115 113 113 117 113 109 116 109 100 85 66 46 43 40 348 334 324 293 250 255 265 259 263 269 262 265 252 254 265
222 233 268 301 51 70 87 97 66 19 41 34 39 91 101 106 150 144 145 129 117 112 120 129 129 128 123 111 115 117 121 288 310 278 338 321 301 290 253 255 273 258 252 268 271 273 273 264 251
202 205 192 79 68 86 89 65 10 7 358 306 271 236 166 172 162 185 186 181 172 172 178 175 167 164 163 144 153 161 156 216 249 296 315 303 297 282 258 237 255 252 250 272 270 253 272 271 238
211 196 196 161 95 65 101 15 308 298 297 271 240 224 237 218 203 222 219 215 205 214 214 205 203 193 186 125 91 68 45 13 347 315 305 301 304 299 286 269 257 250 228 245 254 241 240 257 263
245 236 148 127 104 43 41 322 293 294 310 291 277 258 244 248 230 229 228 227 225 228 222 215 210 212 219 162 154 164 178 243 257 269 283 299 303 300 289 274 261 251 240 244 252 238 229 230 254
151 79 90 99 107 72 27 67 299 333 299 276 262 245 244 245 234 235 238 232 227 217 205 203 198 215 227 190 183 203 259 260 287 297 302 305 305 301 294 278 266 255 245 246 248 245 232 223 226
117 74 61 56 72 49 346 47 288 255 235 258 262 251 245 248 244 240 248 239 233 208 181 170 174 261 312 325 336 278 279 290 303 306 306 306 305 302 299 285 269 262 253 249 244 239 236 231 229
75 83 34 7 17 282 283 264 256 249 228 228 247 262 265 256 234 226 226 220 214 192 178 150 152 295 339 343 328 299 276 273 274 280 284 290 295 293 293 293 279 270 258 255 245 234 237 232 230
151 135 154 194 226 285 321 264 260 254 246 236 239 246 251 248 228 220 215 200 197 181 153 133 137 302 332 328 312 302 287 275 273 274 273 274 273 277 284 287 281 273 267 265 251 241 241 233 231
137 134 144 124 107 9 301 297 304 269 268 238 237 236 229 219 201 187 167 157 153 134 122 142 160 311 321 317 312 305 302 290 282 284 278 276 276 282 287 287 284 279 272 265 257 248 250 241 235
114 137 101 106 130 284 308 294 257 259 246 237 234 234 224 176 152 147 137 115 88 75 48 40 37 294 298 304 300 302 298 293 290 292 291 288 287 286 291 289 286 283 277 267 255 254 253 248 247
105 93 99 104 141 150 243 271 228 223 223 218 225 220 205 192 178 160 120 74 61 36 17 357 336 315 308 307 303 305 301 300 300 293 290 290 290 292 290 287 285 282 279 272 260 256 253 248 250
160 159 147 145 190 168 180 265 264 230 227 212 216 206 181 170 160 145 127 80 23 343 330 322 311 302 295 295 297 297 297 300 298 294 292 292 291 290 287 285 283 281 278 270 260 261 259 250 250
Height
1518 1518 1520 1521 1522 1527 1524 1512 1504 1499 1494 1492 1491 1490 1491 1493 1497 1501 1497 1497 1501 1505 1510 1514 1518 1521 1523 1526 1528 1530 1531 1533 1535 1536 1537 1539 1540 1542 1543 1544 1545 1546 1547 1548 1549 1550 1551 1551 1552
1518 1519 1521 1522 1526 1531 1521 1506 1502 1497 1493 1491 1491 1491 1492 1493 1494 1494 1495 1498 1503 1507 1511 1515 1519 1522 1524 1527 1529 1531 1532 1534 1536 1537 1538 1540 1541 1542 1544 1545 1546 1547 1548 1549 1550 1551 1552 1552 1553
1519 1520 1522 1522 1527 1529 1517 1502 1498 1493 1491 1490 1491 1492 1493 1495 1495 1496 1497 1500 1504 1508 1512 1516 1520 1523 1526 1528 1530 1532 1533 1535 1536 1538 1539 1540 1542 1543 1544 1545 1547 1548 1549 1550 1551 1552 1553 1553 1554
1520 1521 1522 1525 1526 1518 1509 1500 1495 1492 1490 1489 1491 1494 1495 1497 1497 1498 1499 1501 1505 1509 1513 1517 1520 1524 1526 1529 1531 1533 1534 1536 1537 1538 1540 1541 1542 1543 1545 1546 1547 1548 1549 1551 1552 1552 1553 1554 1555
1520 1521 1525 1529 1524 1512 1503 1498 1495 1492 1491 1490 1491 1494 1496 1498 1498 1500 1501 1503 1506 1510 1514 1518 1521 1524 1527 1529 1531 1533 1535 1536 1537 1539 1540 1541 1542 1544 1545 1546 1547 1549 1550 1551 1552 1553 1554 1555 1556
1521 1521 1531 1533 1522 1508 1501 1497 1495 1493 1492 1492 1493 1496 1498 1499 1500 1502 1503 1505 1508 1511 1515 1518 1522 1525 1528 1530 1532 1533 1535 1536 1538 1539 1540 1541 1542 1543 1545 1546 1547 1548 1550 1551 1552 1553 1554 1555 1556
1522 1525 1529 1527 1522 1511 1501 1497 1496 1494 1493 1494 1495 1497 1499 1500 1501 1503 1505 1507 1510 1513 1516 1519 1522 1525 1527 1530 1532 1533 1535 1536 1537 1539 1540 1541 1542 1543 1544 1545 1546 1548 1549 1550 1551 1552 1553 1554 1555
1520 1525 1528 1527 1521 1512 1501 1499 1498 1497 1495 1495 1496 1497 1500 1501 1501 1504 1506 1508 1511 1514 1517 1520 1523 1525 1527 1529 1531 1533 1534 1536 1537 1538 1539 1540 1541 1542 1543 1544 1545 1546 1548 1549 1550 1551 1552 1553 1554
1520 1528 1532 1524 1517 1509 1501 1500 1498 1497 1496 1496 1496 1497 1499 1501 1502 1505 1507 1510 1512 1515 1517 1520 1522 1525 1527 1529 1531 1532 1534 1535 1536 1537 1538 1539 1540 1541 1542 1543 1544 1545 1546 1547 1548 1549 1550 1551 1553
1519 1529 1522 1511 1507 1503 1500 1500 1499 1497 1496 1497 1497 1498 1500 1502 1504 1506 1508 1510 1513 1515 1517 1520 1522 1524 1526 1528 1530 1532 1533 1534 1535 1536 1537 1538 1539 1539 1540 1541 1542 1543 1544 1545 1546 1547 1548 1549 1550
1516 1518 1510 1505 1502 1501 1499 1498 1498 1497 1499 1498 1498 1498 1500 1502 1505 1508 1509 1512 1514 1515 1517 1519 1521 1523 1525 1527 1529 1531 1532 1533 1534 1534 1535 1536 1537 1538 1538 1539 1540 1541 1542 1542 1543 1544 1545 1546 1547
1513 1509 1506 1502 1499 1498 1497 1497 1499 1499 1500 1498 1498 1499 1501 1503 1506 1509 1510 1512 1514 1516 1517 1519 1520 1522 1524 1526 1528 1530 1531 1532 1532 1533 1533 1533 1534 1535 1536 1536 1537 1538 1538 1539 1540 1541 1542 1542 1543
1510 1506 1503 1501 1498 1496 1496 1497 1499 1501 1500 1499 1500 1501 1503 1506 1509 1511 1512 1514 1515 1516 1518 1520 1521 1522 1523 1525 1526 1527 1528 1529 1530 1530 1530 1531 1532 1532 1533 1534 1534 1534 1535 1535 1536 1537 1537 1538 1539
1505 1504 1502 1499 1497 1497 1497 1499 1500 1503 1502 1501 1502 1504 1506 1508 1510 1511 1514 1515 1516 1517 1518 1520 1520 1522 1522 1523 1524 1525 1526 1527 1528 1528 1528 1528 1528 1529 1530 1530 1530 1531 1531 1531 1532 1532 1533 1534 1534
1504 1504 1501 1499 1497 1498 1498 1504 1505 1505 1503 1503 1504 1505 1507 1509 1510 1512 1514 1515 1517 1517 1518 1518 1520 1521 1521 1522 1523 1524 1524 1525 1526 1526 1526 1526 1526 1526 1526 1527 1527 1527 1527 1527 1527 1527 1527 1528 1528
1504 1507 1510 1502 1499 1499 1503 1513 1509 1507 1505 1505 1506 1506 1507 1510 1512 1513 1515 1516 1517 1517 1518 1519 1520 1520 1521 1522 1522 1523 1523 1523 1523 1524 1523 1523 1523 1523 1523 1523 1523 1523 1522 1522 1522 1522 1522 1522 1522
1512 1516 1512 1506 1501 1500 1504 1512 1510 1509 1508 1507 1507 1508 1509 1510 1512 1513 1514 1516 1517 1517 1518 1519 1520 1520 1521 1521 1522 1522 1522 1522 1522 1522 1521 1521 1521 1521 1520 1520 1520 1520 1519 1519 1518 1518 1517 1517 1517
1515 1514 1512 1510 1504 1503 1508 1511 1511 1511 1510 1509 1509 1510 1511 1511 1513 1514 1515 1516 1517 1517 1518 1519 1519 1520 1521 1522 1522 1522 1521 1521 1521 1520 1520 1519 1519 1518 1518 1517 1517 1516 1516 1515 1514 1514 1513 1513 1512
1505 1509 1511 1509 1504 1508 1512 1514 1514 1513 1513 1512 1512 1511 1512 1512 1514 1515 1515 1516 1517 1518 1519 1519 1520 1520 1521 1521 1521 1520 1520 1520 1519 1519 1518 1517 1516 1516 1515 1514 1514 1513 1513 1512 1511 1510 1510 1509 1508
1504 1509 1510 1509 1507 1510 1516 1517 1515 1514 1514 1513 1512 1511 1511 1513 1514 1515 1516 1517 1517 1518 1519 1520 1520 1520 1520 1520 1520 1520 1519 1518 1518 1517 1515 1515 1514 1513 1512 1511 1511 1510 1509 1509 1508 1507 1506 1506 1506
1504 1506 1507 1510 1511 1513 1516 1521 1518 1515 1514 1512 1512 1512 1512 1513 1514 1515 1516 1517 1517 1518 1519 1520 1520 1520 1520 1519 1519 1518 1517 1516 1515 1514 1513 1512 1511 1510 1509 1508 1507 1506 1506 1505 1505 1504 1504 1503 1503
1505 1499 1500 1507 1516 1525 1522 1531 1520 1516 1515 1513 1512 1512 1513 1513 1514 1515 1515 1516 1517 1518 1519 1519 1519 1519 1519 1518 1517 1516 1515 1513 1512 1511 1510 1509 1508 1507 1506 1504 1503 1503 1502 1502 1501 1501 1501 1500 1500
1500 1498 1502 1509 1518 1526 1527 1531 1526 1518 1516 1513 1511 1512 1512 1513 1513 1514 1514 1515 1516 1517 1517 1518 1518 1517 1517 1516 1515 1513 1512 1511 1509 1508 1506 1505 1504 1503 1502 1501 1500 1499 1498 1498 1498 1498 1497 1497 1497
1497 1502 1509 1517 1523 1535 1532 1534 1529 1520 1514 1511 1509 1510 1510 1511 1512 1513 1514 1514 1515 1515 1516 1516 1516 1515 1515 1514 1512 1511 1509 1508 1506 1505 1503 1502 1500 1499 1498 1497 1496 1495 1495 1494 1494 1494 1494 1493 1493
1501 1515 1530 1532 1540 1538 1531 1532 1527 1511 1508 1508 1507 1508 1508 1509 1510 1511 1512 1512 1513 1514 1514 1514 1513 1513 1512 1511 1509 1508 1506 1505 1503 1501 1499 1498 1496 1495 1494 1493 1492 1491 1490 1490 1490 1489 1489 1489 1489
1504 1511 1530 1538 1542 1538 1531 1532 1518 1505 1504 1504 1505 1506 1507 1508 1509 1509 1510 1511 1512 1512 1512 1512 1511 1510 1509 1508 1506 1505 1503 1501 1499 1497 1495 1493 1492 1490 1489 1488 1487 1486 1485 1485 1485 1484 1484 1484 1484
1505 1512 1514 1530 1536 1540 1534 1525 1512 1502 1503 1503 1503 1504 1505 1506 1507 1508 1509 1510 1510 1510 1510 1510 1509 1508 1506 1505 1503 1501 1500 1497 1495 1493 1491 1489 1487 1485 1484 1482 1481 1480 1480 1479 1479 1479 1479 1479 1479
1498 1508 1520 1530 1541 1542 1533 1528 1522 1506 1503 1501 1502 1502 1503 1505 1506 1507 1508 1508 1509 1509 1508 1507 1507 1505 1504 1502 1500 1498 1496 1494 1492 1489 1487 1485 1482 1480 1479 1477 1476 1475 1474 1473 1473 1473 1473 1473 1473
1503 1510 1520 1530 1531 1541 1542 1532 1504 1500 1498 1498 1499 1500 1502 1504 1505 1506 1507 1507 1508 1507 1507 1506 1504 1503 1501 1499 1497 1495 1493 1490 1488 1485 1483 1480 1478 1475 1473 1472 1470 1469 1468 1467 1467 1467 1467 1467 1467
1497 1503 1514 1524 1531 1534 1537 1529 1495 1494 1494 1495 1497 1499 1501 1503 1504 1505 1506 1506 1506 1506 1505 1504 1502 1500 1498 1496 1494 1492 1489 1486 1484 1481 1478 1475 1472 1470 1468 1466 1464 1463 1462 1461 1460 1460 1460 1460 1460